User: anonymous   Login
Location: Pedimozza
(42.0500°N, 9.3500°E)
Time: 03:02:24
(UTC+00:00)
Language:

Terra - Orbit

View from above orbital plane
View from above orbital plane
View from above satellite
View from above satellite

Ground track
Ground track

The orbit data is extracted from the following two-line orbital elements,

1 25994U 99068A   19321.50071572  .00000103  00000-0  32925-4 0  9993
2 25994  98.2143  33.7555 0001170  77.4871 282.6451 14.57116091 59309
Epoch (UTC): 17 November 2019 12:01:01
Eccentricity: 0.0001170
inclination: 98.2143°
perigee height: 701 km
apogee height: 703 km
right ascension of ascending node: 33.7555°
argument of perigee: 77.4871°
revolutions per day: 14.57116091
mean anomaly at epoch: 282.6451°
orbit number at epoch: 5930

The dashed part of the orbit path shows where the satellite is in the earth's shadow,  

DLR